DFSTH EDBJ-EHBK

Flight info

Callsign DFSTH
Flight time 1h 7m
Altitude 9000
Route EFD/N0274F240 IFR DCT ERSIL Y221 BEBLA DCT BATEB/N0266F120 T841 ERNEP DCT COL DCT NVO
Aircraft PC12/L-SDFGRWY/S

Departure

Time 2026-05-04 08:27
Airport Jena-Schöngleina Airfield (EDBJ)

Arrival

Time 2026-05-04 09:35
Airport Maastricht Aachen Airport (EHBK)
Time Latitude Longitude Altitude Speed Heading
2026-05-04 07:35 50.91426 11.71638 1234 ft 0 kts 164°
2026-05-04 08:08 50.91425 11.71638 1233 ft 1 kts 171°
2026-05-04 08:08 50.91424 11.71639 1233 ft 1 kts 170°
2026-05-04 08:17 50.91423 11.71639 1233 ft 1 kts 169°
2026-05-04 08:19 50.91487 11.71506 1233 ft 0 kts 269°
2026-05-04 08:24 50.91487 11.71454 1233 ft 7 kts 269°
2026-05-04 08:24 50.91549 11.71414 1229 ft 18 kts 20°
2026-05-04 08:24 50.91694 11.71505 1231 ft 27 kts 21°
2026-05-04 08:24 50.91883 11.71618 1230 ft 30 kts 19°
2026-05-04 08:25 50.92010 11.71701 1226 ft 13 kts 47°
2026-05-04 08:25 50.92012 11.71697 1226 ft 9 kts 197°
2026-05-04 08:25 50.91813 11.71575 1231 ft 53 kts 201°
2026-05-04 08:25 50.91350 11.71298 1247 ft 85 kts 202°
2026-05-04 08:26 50.90793 11.71004 1449 ft 88 kts 198°
2026-05-04 08:27 50.89384 11.63709 4227 ft 110 kts 266°
2026-05-04 08:28 50.89401 11.62520 4670 ft 111 kts 284°
2026-05-04 08:28 50.89722 11.61370 5122 ft 114 kts 295°
2026-05-04 08:28 50.90033 11.60257 5645 ft 108 kts 277°
2026-05-04 08:28 50.90134 11.59053 6046 ft 114 kts 279°
2026-05-04 08:29 50.90309 11.57786 6480 ft 119 kts 281°
2026-05-04 08:29 50.90479 11.56495 6944 ft 119 kts 280°
2026-05-04 08:29 50.90641 11.55252 7432 ft 116 kts 280°
2026-05-04 08:31 50.91809 11.46421 10883 ft 120 kts 278°
2026-05-04 08:33 50.93006 11.37158 14381 ft 125 kts 277°
2026-05-04 08:33 50.93183 11.35801 14839 ft 126 kts 278°
2026-05-04 08:35 50.94443 11.25966 18094 ft 134 kts 276°
2026-05-04 08:35 50.94626 11.24533 18536 ft 135 kts 276°
2026-05-04 08:35 50.94813 11.23069 18962 ft 136 kts 276°
2026-05-04 08:35 50.95001 11.21598 19387 ft 136 kts 276°
2026-05-04 08:37 50.96144 11.12596 21971 ft 141 kts 275°
2026-05-04 08:37 50.96338 11.11066 22414 ft 142 kts 275°
2026-05-04 08:37 50.96533 11.09529 22741 ft 143 kts 275°
2026-05-04 08:38 50.96729 11.07978 23080 ft 144 kts 275°
2026-05-04 08:38 50.96926 11.06420 23420 ft 144 kts 275°
2026-05-04 08:38 50.97122 11.04865 23722 ft 145 kts 275°
2026-05-04 08:40 50.98780 10.90738 24039 ft 222 kts 275°
2026-05-04 08:40 50.99041 10.88296 24030 ft 227 kts 275°
2026-05-04 08:40 50.99299 10.85804 24029 ft 231 kts 275°
2026-05-04 08:41 50.99559 10.83276 24030 ft 234 kts 275°
2026-05-04 08:41 50.99823 10.80716 24030 ft 236 kts 275°
2026-05-04 08:41 51.00086 10.78164 24029 ft 238 kts 275°
2026-05-04 08:41 51.00357 10.75535 24029 ft 239 kts 275°
2026-05-04 08:42 51.00621 10.72956 24029 ft 240 kts 275°
2026-05-04 08:42 51.00891 10.70307 24028 ft 240 kts 275°
2026-05-04 08:42 51.01155 10.67723 24029 ft 240 kts 275°
2026-05-04 08:42 51.01421 10.65101 24029 ft 241 kts 275°
2026-05-04 08:43 51.01688 10.62470 24028 ft 242 kts 275°
2026-05-04 08:43 51.01955 10.59833 24028 ft 242 kts 275°
2026-05-04 08:43 51.02221 10.57196 24028 ft 242 kts 275°
2026-05-04 08:43 51.02487 10.54558 24027 ft 242 kts 275°
2026-05-04 08:44 51.02752 10.51918 24027 ft 242 kts 275°
2026-05-04 08:44 51.03016 10.49280 24028 ft 242 kts 275°
2026-05-04 08:46 51.04874 10.30569 24025 ft 246 kts 274°
2026-05-04 08:46 51.05057 10.27887 24026 ft 241 kts 265°
2026-05-04 08:46 51.05018 10.25228 24023 ft 241 kts 264°
2026-05-04 08:46 51.04979 10.22596 24022 ft 242 kts 265°
2026-05-04 08:47 51.04948 10.19923 24022 ft 242 kts 265°
2026-05-04 08:47 51.04917 10.17251 24022 ft 241 kts 265°
2026-05-04 08:47 51.04884 10.14586 24022 ft 242 kts 265°
2026-05-04 08:47 51.04849 10.11918 24022 ft 242 kts 265°
2026-05-04 08:48 51.04814 10.09247 24023 ft 242 kts 265°
2026-05-04 08:48 51.04779 10.06578 24022 ft 242 kts 265°
2026-05-04 08:48 51.04743 10.03907 24023 ft 242 kts 265°
2026-05-04 08:48 51.04706 10.01234 24023 ft 242 kts 265°
2026-05-04 08:49 51.04669 9.98564 24019 ft 242 kts 265°
2026-05-04 08:50 51.04432 9.82490 24021 ft 243 kts 264°
2026-05-04 08:50 51.04390 9.79810 24019 ft 242 kts 264°
2026-05-04 08:51 51.04348 9.77167 24020 ft 243 kts 264°
2026-05-04 08:51 51.04306 9.74489 24019 ft 242 kts 264°
2026-05-04 08:51 51.04262 9.71813 24018 ft 242 kts 264°
2026-05-04 08:51 51.04218 9.69138 24020 ft 242 kts 264°
2026-05-04 08:52 51.04173 9.66461 24024 ft 243 kts 264°
2026-05-04 08:52 51.04124 9.63784 24022 ft 242 kts 264°
2026-05-04 08:52 51.04063 9.61110 24021 ft 242 kts 264°
2026-05-04 08:52 51.04003 9.58435 24022 ft 242 kts 264°
2026-05-04 08:53 51.03945 9.55758 24020 ft 242 kts 264°
2026-05-04 08:54 51.03520 9.37062 24025 ft 242 kts 264°
2026-05-04 08:55 51.03456 9.34394 24025 ft 242 kts 264°
2026-05-04 08:55 51.03393 9.31731 24026 ft 242 kts 264°
2026-05-04 08:55 51.03329 9.29064 24025 ft 241 kts 264°
2026-05-04 08:55 51.03264 9.26398 24025 ft 242 kts 264°
2026-05-04 08:57 51.02793 9.07786 24023 ft 241 kts 263°
2026-05-04 09:01 51.01770 8.70784 24008 ft 239 kts 263°
2026-05-04 09:01 51.01634 8.68171 24013 ft 235 kts 257°
2026-05-04 09:01 51.01347 8.65616 24017 ft 235 kts 256°
2026-05-04 09:01 51.01057 8.63062 24010 ft 235 kts 256°
2026-05-04 09:02 51.00775 8.60500 24011 ft 235 kts 257°
2026-05-04 09:02 51.00494 8.57943 24010 ft 236 kts 257°
2026-05-04 09:02 51.00211 8.55384 24012 ft 236 kts 257°
2026-05-04 09:02 50.99925 8.52818 24013 ft 236 kts 257°
2026-05-04 09:03 50.99639 8.50243 24017 ft 237 kts 256°
2026-05-04 09:03 50.99351 8.47666 24011 ft 237 kts 256°
2026-05-04 09:03 50.99063 8.45086 24011 ft 238 kts 256°
2026-05-04 09:03 50.98774 8.42501 24007 ft 238 kts 256°
2026-05-04 09:04 50.98487 8.39948 24013 ft 238 kts 256°
2026-05-04 09:04 50.98196 8.37358 24011 ft 239 kts 256°
2026-05-04 09:04 50.97903 8.34759 24015 ft 240 kts 256°
2026-05-04 09:04 50.97609 8.32156 24014 ft 240 kts 256°
2026-05-04 09:05 50.97314 8.29549 24013 ft 240 kts 256°
2026-05-04 09:05 50.96885 8.27017 24020 ft 236 kts 245°
2026-05-04 09:05 50.96229 8.24627 24013 ft 236 kts 244°
2026-05-04 09:05 50.95579 8.22232 24017 ft 236 kts 245°
2026-05-04 09:06 50.94933 8.19835 24016 ft 237 kts 245°
2026-05-04 09:07 50.92750 8.02134 24032 ft 243 kts 267°
2026-05-04 09:08 50.92798 7.99450 24012 ft 244 kts 266°
2026-05-04 09:08 50.92845 7.96767 24011 ft 244 kts 267°
2026-05-04 09:08 50.92907 7.94076 24011 ft 244 kts 267°
2026-05-04 09:08 50.92972 7.91399 23936 ft 240 kts 267°
2026-05-04 09:09 50.93034 7.88751 23433 ft 242 kts 267°
2026-05-04 09:09 50.93092 7.86125 22913 ft 241 kts 267°
2026-05-04 09:09 50.93150 7.83442 22412 ft 240 kts 267°
2026-05-04 09:09 50.93206 7.80840 21940 ft 239 kts 267°
2026-05-04 09:10 50.93262 7.78217 21473 ft 238 kts 267°
2026-05-04 09:10 50.93318 7.75598 20998 ft 237 kts 267°
2026-05-04 09:10 50.93372 7.72994 20516 ft 236 kts 267°
2026-05-04 09:10 50.93426 7.70398 20043 ft 235 kts 267°
2026-05-04 09:11 50.93479 7.67809 19576 ft 235 kts 267°
2026-05-04 09:11 50.93531 7.65226 19135 ft 234 kts 267°
2026-05-04 09:11 50.93583 7.62647 18692 ft 234 kts 267°
2026-05-04 09:11 50.93634 7.60074 18260 ft 233 kts 267°
2026-05-04 09:12 50.93685 7.57506 17766 ft 232 kts 267°
2026-05-04 09:12 50.93734 7.54962 17328 ft 230 kts 267°
2026-05-04 09:14 50.94040 7.38508 14437 ft 219 kts 267°
2026-05-04 09:14 50.94083 7.36099 13999 ft 218 kts 267°
2026-05-04 09:14 50.94125 7.33742 13526 ft 216 kts 267°
2026-05-04 09:14 50.94166 7.31373 13024 ft 214 kts 268°
2026-05-04 09:15 50.94206 7.29027 12529 ft 212 kts 268°
2026-05-04 09:15 50.94246 7.26699 12010 ft 210 kts 268°
2026-05-04 09:15 50.94285 7.24394 11498 ft 208 kts 268°
2026-05-04 09:15 50.94322 7.22115 10991 ft 206 kts 269°
2026-05-04 09:17 50.94635 7.02022 8996 ft 233 kts 270°
2026-05-04 09:18 50.94672 6.99440 8998 ft 236 kts 269°
2026-05-04 09:18 50.94709 6.96869 8997 ft 237 kts 270°
2026-05-04 09:18 50.94747 6.94248 8997 ft 238 kts 269°
2026-05-04 09:18 50.94784 6.91574 8997 ft 241 kts 269°
2026-05-04 09:19 50.94820 6.88942 8998 ft 243 kts 270°
2026-05-04 09:19 50.94856 6.86252 8999 ft 245 kts 269°
2026-05-04 09:19 50.94893 6.83553 9000 ft 246 kts 270°
2026-05-04 09:19 50.94928 6.80841 9000 ft 246 kts 269°
2026-05-04 09:20 50.94963 6.78124 9000 ft 247 kts 269°
2026-05-04 09:20 50.94998 6.75399 9000 ft 247 kts 269°
2026-05-04 09:20 50.95031 6.72672 9001 ft 247 kts 269°
2026-05-04 09:20 50.95064 6.69944 9000 ft 248 kts 269°
2026-05-04 09:21 50.95097 6.67212 8998 ft 248 kts 269°
2026-05-04 09:21 50.95129 6.64476 8998 ft 248 kts 269°
2026-05-04 09:21 50.95160 6.61740 8997 ft 248 kts 269°
2026-05-04 09:21 50.95190 6.59007 8999 ft 249 kts 269°
2026-05-04 09:22 50.95220 6.56338 9001 ft 249 kts 269°
2026-05-04 09:22 50.95250 6.53599 8998 ft 248 kts 269°
2026-05-04 09:22 50.95279 6.50861 8998 ft 248 kts 269°
2026-05-04 09:22 50.95306 6.48126 8998 ft 248 kts 269°
2026-05-04 09:23 50.95334 6.45387 8870 ft 253 kts 269°
2026-05-04 09:23 50.95361 6.42548 8509 ft 259 kts 269°
2026-05-04 09:23 50.95391 6.39711 8150 ft 253 kts 269°
2026-05-04 09:23 50.95419 6.36970 7794 ft 245 kts 269°
2026-05-04 09:25 50.95570 6.18816 5545 ft 236 kts 270°
2026-05-04 09:25 50.95589 6.16190 5212 ft 239 kts 270°
2026-05-04 09:26 50.95609 6.13557 4883 ft 237 kts 270°
2026-05-04 09:26 50.95626 6.10970 4554 ft 233 kts 269°
2026-05-04 09:26 50.95644 6.08420 4217 ft 230 kts 269°
2026-05-04 09:26 50.96012 6.06001 3999 ft 225 kts 297°
2026-05-04 09:27 50.96918 6.04084 3988 ft 212 kts 313°
2026-05-04 09:27 50.98071 6.02740 3985 ft 201 kts 330°
2026-05-04 09:27 50.99309 6.01818 3964 ft 194 kts 334°
2026-05-04 09:27 51.00566 6.00867 3582 ft 205 kts 333°
2026-05-04 09:28 51.01737 5.99556 3217 ft 209 kts 311°
2026-05-04 09:28 51.02631 5.97723 2841 ft 210 kts 302°
2026-05-04 09:28 51.03147 5.95563 2516 ft 209 kts 279°
2026-05-04 09:28 51.03241 5.93440 2497 ft 179 kts 259°
2026-05-04 09:29 51.02908 5.91700 2489 ft 153 kts 243°
2026-05-04 09:29 51.02484 5.90237 2488 ft 141 kts 243°
2026-05-04 09:29 51.02069 5.88879 2485 ft 136 kts 237°
2026-05-04 09:29 51.01509 5.87744 2489 ft 124 kts 219°
2026-05-04 09:30 51.00860 5.86973 2480 ft 112 kts 214°
2026-05-04 09:30 51.00245 5.86289 2347 ft 103 kts 212°
2026-05-04 09:30 50.99688 5.85694 2210 ft 90 kts 212°
2026-05-04 09:30 50.99203 5.85182 2094 ft 77 kts 211°
2026-05-04 09:31 50.98797 5.84756 1979 ft 63 kts 211°
2026-05-04 09:31 50.98418 5.84498 2007 ft 61 kts 195°
2026-05-04 09:31 50.98018 5.84231 2068 ft 61 kts 207°
2026-05-04 09:31 50.97644 5.83742 2109 ft 74 kts 222°
2026-05-04 09:32 50.97255 5.83189 2284 ft 79 kts 216°
2026-05-04 09:32 50.96791 5.82658 2473 ft 87 kts 210°
2026-05-04 09:34 50.92830 5.78683 611 ft 79 kts 210°
2026-05-04 09:34 50.92394 5.78241 488 ft 70 kts 212°
2026-05-04 09:34 50.91991 5.77833 399 ft 67 kts 211°
2026-05-04 09:34 50.91644 5.77485 376 ft 51 kts 214°
2026-05-04 09:35 50.91423 5.77240 378 ft 19 kts 258°
2026-05-04 09:35 50.91481 5.77060 378 ft 18 kts 297°
2026-05-04 09:35 50.91460 5.76978 378 ft 3 kts 199°
2026-05-04 09:35 50.91428 5.76951 378 ft 9 kts 210°